Torna al catalogo

DELTA 1 DEB

AttivoPO
NORAD 21677·DEBRIS·🇺🇸 United States

Lanciato Jun 12, 1975 da Vandenberg Space Force Base

Loading…

Prossimi Passaggi (prossime 24 ore)

TLE

AggiornatoSource: Space-Track

Epoca: Sep 14, 2026, 07:15 UTC

1 21677U 75052JD  26257.30266633  .00000019  00000-0  17642-3 0  9996
2 21677  99.9302  16.9426 0477581 349.9152  34.6987 12.71925889639344

Traccia DELTA 1 DEB in tempo reale con AllMySat

Download on the App Store